iso_date,Year,Hour,Min,DOY,POS_DOY,Lat,Lon,BP,Ts,Ta,has_bp,has_ts,has_ta,BuoyID,Buoy_Type,Buoy_Owner,Logistics,Hemisphere
2022-01-05T20:22:16Z,2022,20,22,5.8488,5.8488,64.86063,-147.85061,1002.6,-20.54,-19.31,yes,yes,yes,300343063380860,SIMB3,UAF,unknown,North
2022-01-05T21:04:45Z,2022,21,4,5.8783,5.8783,64.8606,-147.85058,1002.4,-22.0,-21.19,yes,yes,yes,300343063380860,SIMB3,UAF,unknown,North
2022-02-10T23:32:55Z,2022,23,32,41.9812,41.9812,68.33867,-166.69651,1032.8,-2.3,-27.81,yes,yes,yes,300343063380860,SIMB3,UAF,unknown,North
2022-02-11T00:01:00Z,2022,0,1,42.0007,42.0007,68.33866,-166.69651,1033.0,-2.08,-28.44,yes,yes,yes,300343063380860,SIMB3,UAF,unknown,North
2022-02-11T01:00:54Z,2022,1,0,42.0423,42.0423,68.33869,-166.69638,1032.6,-2.08,-27.56,yes,yes,yes,300343063380860,SIMB3,UAF,unknown,North
2022-02-11T02:00:48Z,2022,2,0,42.0839,42.0839,68.33867,-166.69642,1032.2,-2.08,-27.25,yes,yes,yes,300343063380860,SIMB3,UAF,unknown,North
2022-02-11T03:01:52Z,2022,3,1,42.1263,42.1263,68.33865,-166.69645,1031.8,-2.08,-27.44,yes,yes,yes,300343063380860,SIMB3,UAF,unknown,North
2022-02-11T04:01:03Z,2022,4,1,42.1674,42.1674,68.33869,-166.69648,1031.7,-2.08,-27.31,yes,yes,yes,300343063380860,SIMB3,UAF,unknown,North
2022-02-11T05:01:58Z,2022,5,1,42.2097,42.2097,68.33866,-166.69638,1031.2,-2.08,-27.94,yes,yes,yes,300343063380860,SIMB3,UAF,unknown,North
2022-02-11T06:01:00Z,2022,6,0,42.2507,42.2507,68.33907,-166.69648,1030.6,-2.08,-27.75,yes,yes,yes,300343063380860,SIMB3,UAF,unknown,North
2022-02-11T07:01:29Z,2022,7,1,42.2927,42.2927,68.33869,-166.69642,1030.4,-2.08,-27.44,yes,yes,yes,300343063380860,SIMB3,UAF,unknown,North
2022-02-11T08:01:06Z,2022,8,1,42.3341,42.3341,68.33869,-166.69651,1030.2,-2.08,-27.5,yes,yes,yes,300343063380860,SIMB3,UAF,unknown,North
2022-02-11T09:01:00Z,2022,9,1,42.3757,42.3757,68.33866,-166.69642,1029.8,-2.08,-27.25,yes,yes,yes,300343063380860,SIMB3,UAF,unknown,North
2022-02-11T10:00:54Z,2022,10,0,42.4173,42.4173,68.3387,-166.69645,1029.6,-2.08,-27.31,yes,yes,yes,300343063380860,SIMB3,UAF,unknown,North
2022-02-11T11:01:06Z,2022,11,1,42.4591,42.4591,68.33869,-166.69648,1029.5,-2.08,-27.06,yes,yes,yes,300343063380860,SIMB3,UAF,unknown,North
2022-02-11T12:00:51Z,2022,12,0,42.5006,42.5006,68.33869,-166.69645,1029.1,-2.08,-27.0,yes,yes,yes,300343063380860,SIMB3,UAF,unknown,North
2022-02-11T13:01:03Z,2022,13,1,42.5424,42.5424,68.33869,-166.69646,1029.1,-2.08,-27.0,yes,yes,yes,300343063380860,SIMB3,UAF,unknown,North
2022-02-11T14:00:57Z,2022,14,0,42.584,42.584,68.33869,-166.69646,1028.9,-2.08,-26.94,yes,yes,yes,300343063380860,SIMB3,UAF,unknown,North
2022-02-11T15:01:52Z,2022,15,1,42.6263,42.6263,68.33867,-166.69646,1029.0,-2.08,-26.81,yes,yes,yes,300343063380860,SIMB3,UAF,unknown,North
2022-02-11T16:01:37Z,2022,16,1,42.6678,42.6678,68.33869,-166.69651,1029.1,-2.08,-26.81,yes,yes,yes,300343063380860,SIMB3,UAF,unknown,North
2022-02-11T17:00:48Z,2022,17,0,42.7089,42.7089,68.33867,-166.69648,1029.2,-2.08,-26.81,yes,yes,yes,300343063380860,SIMB3,UAF,unknown,North
2022-02-11T18:01:00Z,2022,18,1,42.7507,42.7507,68.33869,-166.69645,1029.3,-2.08,-26.69,yes,yes,yes,300343063380860,SIMB3,UAF,unknown,North
2022-02-11T19:01:03Z,2022,19,1,42.7924,42.7924,68.33867,-166.69645,1029.8,-2.08,-26.56,yes,yes,yes,300343063380860,SIMB3,UAF,unknown,North
2022-02-11T20:00:48Z,2022,20,0,42.8339,42.8339,68.33867,-166.69653,1029.9,-2.08,-26.31,yes,yes,yes,300343063380860,SIMB3,UAF,unknown,North
2022-02-11T21:01:09Z,2022,21,1,42.8758,42.8758,68.33866,-166.69653,1030.5,-2.08,-26.06,yes,yes,yes,300343063380860,SIMB3,UAF,unknown,North
2022-02-11T22:00:54Z,2022,22,0,42.9173,42.9173,68.33869,-166.69637,1030.8,-2.08,-26.19,yes,yes,yes,300343063380860,SIMB3,UAF,unknown,North
2022-02-11T23:01:58Z,2022,23,1,42.9597,42.9597,68.33866,-166.69642,1031.3,-2.08,-25.75,yes,yes,yes,300343063380860,SIMB3,UAF,unknown,North
2022-02-12T00:01:09Z,2022,0,1,43.0008,43.0008,68.33869,-166.69653,1031.6,-2.08,-25.5,yes,yes,yes,300343063380860,SIMB3,UAF,unknown,North
2022-02-12T01:03:30Z,2022,1,3,43.0441,43.0441,68.33872,-166.69645,1031.8,-2.08,-25.75,yes,yes,yes,300343063380860,SIMB3,UAF,unknown,North
2022-02-12T02:01:23Z,2022,2,1,43.0843,43.0843,68.33857,-166.69629,1032.0,-2.08,-26.25,yes,yes,yes,300343063380860,SIMB3,UAF,unknown,North
2022-02-12T03:01:00Z,2022,3,1,43.1257,43.1257,68.33866,-166.69642,1032.4,-2.08,-26.88,yes,yes,yes,300343063380860,SIMB3,UAF,unknown,North
2022-02-12T04:01:55Z,2022,4,1,43.168,43.168,68.33869,-166.69646,1032.8,-2.08,-27.25,yes,yes,yes,300343063380860,SIMB3,UAF,unknown,North
2022-02-12T05:00:57Z,2022,5,0,43.209,43.209,68.33867,-166.69634,1033.2,-2.08,-27.31,yes,yes,yes,300343063380860,SIMB3,UAF,unknown,North
2022-02-12T06:01:17Z,2022,6,1,43.2509,43.2509,68.33869,-166.69638,1033.9,-2.08,-27.31,yes,yes,yes,300343063380860,SIMB3,UAF,unknown,North
2022-02-12T07:01:03Z,2022,7,1,43.2924,43.2924,68.33869,-166.69645,1034.2,-2.08,-27.5,yes,yes,yes,300343063380860,SIMB3,UAF,unknown,North
2022-02-12T08:01:23Z,2022,8,1,43.3343,43.3343,68.33867,-166.69642,1034.7,-2.08,-27.81,yes,yes,yes,300343063380860,SIMB3,UAF,unknown,North
2022-02-12T09:00:51Z,2022,9,0,43.3756,43.3756,68.33867,-166.69642,1035.2,-2.08,-27.56,yes,yes,yes,300343063380860,SIMB3,UAF,unknown,North
2022-02-12T10:02:03Z,2022,10,2,43.4181,43.4181,68.33869,-166.69653,1035.6,-2.1,-28.25,yes,yes,yes,300343063380860,SIMB3,UAF,unknown,North
2022-02-12T11:01:23Z,2022,11,1,43.4593,43.4593,68.33867,-166.69645,1035.9,-2.08,-28.5,yes,yes,yes,300343063380860,SIMB3,UAF,unknown,North
2022-02-12T12:01:00Z,2022,12,1,43.5007,43.5007,68.33867,-166.69646,1035.8,-2.08,-29.06,yes,yes,yes,300343063380860,SIMB3,UAF,unknown,North
2022-02-12T13:01:03Z,2022,13,1,43.5424,43.5424,68.33867,-166.69648,1036.2,-2.08,-29.19,yes,yes,yes,300343063380860,SIMB3,UAF,unknown,North
2022-02-12T14:00:57Z,2022,14,0,43.584,43.584,68.33866,-166.69645,1036.6,-2.08,-29.31,yes,yes,yes,300343063380860,SIMB3,UAF,unknown,North
2022-02-12T15:01:00Z,2022,15,1,43.6257,43.6257,68.33869,-166.69645,1037.0,-2.1,-29.81,yes,yes,yes,300343063380860,SIMB3,UAF,unknown,North
2022-02-12T16:00:54Z,2022,16,0,43.6673,43.6673,68.33873,-166.69659,1037.0,-2.08,-29.69,yes,yes,yes,300343063380860,SIMB3,UAF,unknown,North
2022-02-12T17:00:57Z,2022,17,0,43.709,43.709,68.33867,-166.69648,1037.4,-2.08,-30.81,yes,yes,yes,300343063380860,SIMB3,UAF,unknown,North
2022-02-12T18:00:51Z,2022,18,0,43.7506,43.7506,68.33866,-166.69659,1037.4,-2.08,-31.06,yes,yes,yes,300343063380860,SIMB3,UAF,unknown,North
2022-02-12T19:00:54Z,2022,19,0,43.7923,43.7923,68.33869,-166.69638,1037.9,-2.08,-31.06,yes,yes,yes,300343063380860,SIMB3,UAF,unknown,North
2022-02-12T20:00:57Z,2022,20,0,43.834,43.834,68.33866,-166.69653,1038.0,-2.08,-31.5,yes,yes,yes,300343063380860,SIMB3,UAF,unknown,North
2022-02-12T21:02:44Z,2022,21,2,43.8769,43.8769,68.33869,-166.69642,1038.4,-2.08,-30.75,yes,yes,yes,300343063380860,SIMB3,UAF,unknown,North
2022-02-12T22:01:03Z,2022,22,1,43.9174,43.9174,68.33866,-166.69646,1038.2,-2.08,-29.0,yes,yes,yes,300343063380860,SIMB3,UAF,unknown,North
2022-02-12T23:01:58Z,2022,23,1,43.9597,43.9597,68.33867,-166.69645,1038.3,-2.08,-29.0,yes,yes,yes,300343063380860,SIMB3,UAF,unknown,North
2022-02-13T00:01:00Z,2022,0,1,44.0007,44.0007,68.33872,-166.69653,1038.3,-2.08,-28.38,yes,yes,yes,300343063380860,SIMB3,UAF,unknown,North
2022-02-13T01:01:55Z,2022,1,1,44.043,44.043,68.33869,-166.69638,1038.5,-2.08,-28.5,yes,yes,yes,300343063380860,SIMB3,UAF,unknown,North
2022-02-13T02:00:48Z,2022,2,0,44.0839,44.0839,68.33863,-166.6963,1038.5,-2.08,-29.56,yes,yes,yes,300343063380860,SIMB3,UAF,unknown,North
2022-02-13T03:01:00Z,2022,3,1,44.1257,44.1257,68.33869,-166.69645,1038.8,-2.08,-30.06,yes,yes,yes,300343063380860,SIMB3,UAF,unknown,North
2022-02-13T04:00:54Z,2022,4,0,44.1673,44.1673,68.33869,-166.69642,1039.2,-2.08,-30.25,yes,yes,yes,300343063380860,SIMB3,UAF,unknown,North
2022-02-13T05:00:57Z,2022,5,1,44.209,44.209,68.33866,-166.69638,1039.5,-2.08,-30.31,yes,yes,yes,300343063380860,SIMB3,UAF,unknown,North
2022-02-13T06:04:01Z,2022,6,3,44.2528,44.2528,68.33867,-166.69638,1039.9,-2.08,-30.56,yes,yes,yes,300343063380860,SIMB3,UAF,unknown,North
2022-02-13T07:01:03Z,2022,7,1,44.2924,44.2924,68.33869,-166.69634,1039.9,-2.08,-30.62,yes,yes,yes,300343063380860,SIMB3,UAF,unknown,North
2022-02-13T08:00:57Z,2022,8,0,44.334,44.334,68.33867,-166.69638,1040.4,-2.08,-31.12,yes,yes,yes,300343063380860,SIMB3,UAF,unknown,North
2022-02-13T09:01:52Z,2022,9,1,44.3763,44.3763,68.33866,-166.69645,1040.5,-2.08,-30.44,yes,yes,yes,300343063380860,SIMB3,UAF,unknown,North
2022-02-13T10:01:03Z,2022,10,1,44.4174,44.4174,68.33867,-166.69651,1040.5,-2.08,-31.12,yes,yes,yes,300343063380860,SIMB3,UAF,unknown,North
2022-02-13T11:00:57Z,2022,11,0,44.459,44.459,68.33869,-166.69651,1040.5,-2.08,-31.44,yes,yes,yes,300343063380860,SIMB3,UAF,unknown,North
2022-02-13T12:01:00Z,2022,12,1,44.5007,44.5007,68.33869,-166.69645,1040.6,-2.08,-32.69,yes,yes,yes,300343063380860,SIMB3,UAF,unknown,North
2022-02-13T13:00:54Z,2022,13,0,44.5423,44.5423,68.33867,-166.69646,1040.0,-2.08,-30.69,yes,yes,yes,300343063380860,SIMB3,UAF,unknown,North
2022-02-13T14:00:57Z,2022,14,0,44.584,44.584,68.33869,-166.69645,1039.7,-2.08,-32.19,yes,yes,yes,300343063380860,SIMB3,UAF,unknown,North
2022-02-13T15:01:00Z,2022,15,1,44.6257,44.6257,68.33869,-166.69645,1039.1,-2.08,-32.62,yes,yes,yes,300343063380860,SIMB3,UAF,unknown,North
2022-02-13T16:01:03Z,2022,16,1,44.6674,44.6674,68.33869,-166.69659,1039.1,-2.08,-33.19,yes,yes,yes,300343063380860,SIMB3,UAF,unknown,North
2022-02-13T17:00:57Z,2022,17,0,44.709,44.709,68.33865,-166.69646,1038.7,-2.09,-32.94,yes,yes,yes,300343063380860,SIMB3,UAF,unknown,North
2022-02-13T18:02:09Z,2022,18,2,44.7515,44.7515,68.3387,-166.69646,1038.7,-2.08,-32.56,yes,yes,yes,300343063380860,SIMB3,UAF,unknown,North
2022-02-13T19:00:54Z,2022,19,0,44.7923,44.7923,68.33869,-166.69651,1037.9,-2.08,-31.5,yes,yes,yes,300343063380860,SIMB3,UAF,unknown,North
2022-02-13T20:01:06Z,2022,20,1,44.8341,44.8341,68.33867,-166.69653,1037.4,-2.08,-31.38,yes,yes,yes,300343063380860,SIMB3,UAF,unknown,North
2022-02-13T21:00:51Z,2022,21,0,44.8756,44.8756,68.33873,-166.69653,1036.9,-2.08,-30.94,yes,yes,yes,300343063380860,SIMB3,UAF,unknown,North
2022-02-13T22:01:03Z,2022,22,1,44.9174,44.9174,68.33866,-166.69645,1036.0,-2.08,-30.0,yes,yes,yes,300343063380860,SIMB3,UAF,unknown,North
2022-02-13T23:00:48Z,2022,23,0,44.9589,44.9589,68.33863,-166.69646,1035.6,-2.08,-28.94,yes,yes,yes,300343063380860,SIMB3,UAF,unknown,North
2022-02-14T00:01:09Z,2022,0,1,45.0008,45.0008,68.3387,-166.69648,1035.0,-2.08,-28.12,yes,yes,yes,300343063380860,SIMB3,UAF,unknown,North
2022-02-14T01:00:54Z,2022,1,0,45.0423,45.0423,68.33869,-166.69638,1034.2,-2.08,-27.69,yes,yes,yes,300343063380860,SIMB3,UAF,unknown,North
2022-02-14T02:00:57Z,2022,2,1,45.084,45.084,68.33863,-166.69634,1033.6,-2.08,-28.25,yes,yes,yes,300343063380860,SIMB3,UAF,unknown,North
2022-02-14T03:01:00Z,2022,3,1,45.1257,45.1257,68.33915,-166.69768,1033.3,-2.08,-28.44,yes,yes,yes,300343063380860,SIMB3,UAF,unknown,North
2022-02-14T04:02:21Z,2022,4,2,45.1683,45.1683,68.33869,-166.69646,1032.7,-2.08,-28.19,yes,yes,yes,300343063380860,SIMB3,UAF,unknown,North
2022-02-14T05:00:57Z,2022,5,0,45.209,45.209,68.33866,-166.69637,1033.0,-2.08,-28.31,yes,yes,yes,300343063380860,SIMB3,UAF,unknown,North
2022-02-14T06:00:51Z,2022,6,0,45.2506,45.2506,68.33869,-166.69637,1032.6,-2.08,-28.19,yes,yes,yes,300343063380860,SIMB3,UAF,unknown,North
2022-02-14T07:02:12Z,2022,7,2,45.2932,45.2932,68.33869,-166.69642,1032.8,-2.08,-28.19,yes,yes,yes,300343063380860,SIMB3,UAF,unknown,North
2022-02-14T08:00:48Z,2022,8,0,45.3339,45.3339,68.33869,-166.69648,1032.9,-2.08,-28.56,yes,yes,yes,300343063380860,SIMB3,UAF,unknown,North
2022-02-14T09:01:00Z,2022,9,1,45.3757,45.3757,68.33865,-166.69645,1033.1,-2.08,-28.31,yes,yes,yes,300343063380860,SIMB3,UAF,unknown,North
2022-02-14T10:00:54Z,2022,10,0,45.4173,45.4173,68.33898,-166.69598,1033.3,-2.08,-28.31,yes,yes,yes,300343063380860,SIMB3,UAF,unknown,North
2022-02-14T11:01:06Z,2022,11,1,45.4591,45.4591,68.33863,-166.69659,1032.9,-2.08,-28.06,yes,yes,yes,300343063380860,SIMB3,UAF,unknown,North
2022-02-14T12:01:00Z,2022,12,0,45.5007,45.5007,68.3387,-166.69645,1032.8,-2.08,-28.25,yes,yes,yes,300343063380860,SIMB3,UAF,unknown,North
2022-02-14T13:01:03Z,2022,13,1,45.5424,45.5424,68.33877,-166.69653,1033.1,-2.08,-28.25,yes,yes,yes,300343063380860,SIMB3,UAF,unknown,North
2022-02-14T14:00:57Z,2022,14,0,45.584,45.584,68.33867,-166.69645,1033.5,-2.08,-28.25,yes,yes,yes,300343063380860,SIMB3,UAF,unknown,North
2022-02-14T15:01:00Z,2022,15,1,45.6257,45.6257,68.3387,-166.69646,1034.0,-2.08,-29.25,yes,yes,yes,300343063380860,SIMB3,UAF,unknown,North
2022-02-14T16:02:03Z,2022,16,2,45.6681,45.6681,68.33869,-166.69656,1034.1,-2.08,-29.44,yes,yes,yes,300343063380860,SIMB3,UAF,unknown,North
2022-02-14T17:00:57Z,2022,17,0,45.709,45.709,68.33863,-166.69651,1034.2,-2.08,-29.56,yes,yes,yes,300343063380860,SIMB3,UAF,unknown,North
2022-02-14T18:01:00Z,2022,18,1,45.7507,45.7507,68.33869,-166.69645,1034.2,-2.08,-29.44,yes,yes,yes,300343063380860,SIMB3,UAF,unknown,North
2022-02-14T19:01:03Z,2022,19,1,45.7924,45.7924,68.33867,-166.69651,1034.9,-2.08,-29.62,yes,yes,yes,300343063380860,SIMB3,UAF,unknown,North
2022-02-14T20:00:48Z,2022,20,0,45.8339,45.8339,68.33869,-166.69659,1035.4,-2.08,-29.38,yes,yes,yes,300343063380860,SIMB3,UAF,unknown,North
2022-02-14T21:01:00Z,2022,21,1,45.8757,45.8757,68.33872,-166.69648,1035.5,-2.1,-28.69,yes,yes,yes,300343063380860,SIMB3,UAF,unknown,North
2022-02-14T22:00:54Z,2022,22,0,45.9173,45.9173,68.33867,-166.69642,1036.0,-2.08,-28.19,yes,yes,yes,300343063380860,SIMB3,UAF,unknown,North
2022-02-14T23:00:57Z,2022,23,0,45.959,45.959,68.33866,-166.69645,1036.4,-2.08,-27.62,yes,yes,yes,300343063380860,SIMB3,UAF,unknown,North
2022-02-15T00:01:52Z,2022,0,1,46.0013,46.0013,68.33872,-166.69651,1036.1,-2.08,-27.31,yes,yes,yes,300343063380860,SIMB3,UAF,unknown,North
2022-02-15T01:02:12Z,2022,1,2,46.0432,46.0432,68.33869,-166.69638,1035.9,-2.08,-27.38,yes,yes,yes,300343063380860,SIMB3,UAF,unknown,North
2022-02-15T02:01:14Z,2022,2,1,46.0842,46.0842,68.33866,-166.69642,1035.9,-2.08,-27.44,yes,yes,yes,300343063380860,SIMB3,UAF,unknown,North
2022-02-15T03:01:00Z,2022,3,1,46.1257,46.1257,68.33869,-166.69645,1035.9,-2.1,-28.19,yes,yes,yes,300343063380860,SIMB3,UAF,unknown,North
2022-02-15T04:01:03Z,2022,4,1,46.1674,46.1674,68.33885,-166.69637,1036.2,-2.08,-28.94,yes,yes,yes,300343063380860,SIMB3,UAF,unknown,North
2022-02-15T05:00:48Z,2022,5,0,46.2089,46.2089,68.33884,-166.69656,1036.5,-2.08,-29.06,yes,yes,yes,300343063380860,SIMB3,UAF,unknown,North
2022-02-15T06:01:00Z,2022,6,1,46.2507,46.2507,68.3387,-166.69642,1036.2,-2.1,-29.31,yes,yes,yes,300343063380860,SIMB3,UAF,unknown,North
2022-02-15T07:00:54Z,2022,7,0,46.2923,46.2923,68.33869,-166.69638,1036.1,-2.1,-29.5,yes,yes,yes,300343063380860,SIMB3,UAF,unknown,North
2022-02-15T08:00:57Z,2022,8,0,46.334,46.334,68.33867,-166.69646,1035.5,-2.08,-29.44,yes,yes,yes,300343063380860,SIMB3,UAF,unknown,North
2022-02-15T09:00:51Z,2022,9,0,46.3756,46.3756,68.33869,-166.69645,1035.3,-2.09,-29.44,yes,yes,yes,300343063380860,SIMB3,UAF,unknown,North
2022-02-15T10:01:03Z,2022,10,0,46.4174,46.4174,68.33869,-166.69648,1035.3,-2.08,-29.31,yes,yes,yes,300343063380860,SIMB3,UAF,unknown,North
2022-02-15T11:01:58Z,2022,11,1,46.4597,46.4597,68.33869,-166.69651,1034.9,-2.08,-29.44,yes,yes,yes,300343063380860,SIMB3,UAF,unknown,North
2022-02-15T12:01:00Z,2022,12,1,46.5007,46.5007,68.33869,-166.69645,1034.2,-2.12,-28.88,yes,yes,yes,300343063380860,SIMB3,UAF,unknown,North
2022-02-15T13:01:03Z,2022,13,1,46.5424,46.5424,68.33867,-166.69648,1033.6,-2.08,-28.44,yes,yes,yes,300343063380860,SIMB3,UAF,unknown,North
2022-02-15T14:00:57Z,2022,14,0,46.584,46.584,68.33865,-166.69637,1032.9,-2.08,-28.0,yes,yes,yes,300343063380860,SIMB3,UAF,unknown,North
2022-02-15T15:00:51Z,2022,15,0,46.6256,46.6256,68.3387,-166.69646,1032.3,-2.08,-27.75,yes,yes,yes,300343063380860,SIMB3,UAF,unknown,North
2022-02-15T16:00:54Z,2022,16,0,46.6673,46.6673,68.33869,-166.69659,1032.1,-2.1,-27.81,yes,yes,yes,300343063380860,SIMB3,UAF,unknown,North
2022-02-15T17:00:57Z,2022,17,0,46.709,46.709,68.33865,-166.69653,1032.1,-2.1,-27.44,yes,yes,yes,300343063380860,SIMB3,UAF,unknown,North
2022-02-15T18:01:00Z,2022,18,1,46.7507,46.7507,68.33869,-166.69648,1032.1,-2.1,-27.56,yes,yes,yes,300343063380860,SIMB3,UAF,unknown,North
2022-02-15T19:00:54Z,2022,19,0,46.7923,46.7923,68.33882,-166.69669,1032.5,-2.08,-27.38,yes,yes,yes,300343063380860,SIMB3,UAF,unknown,North
2022-02-15T20:02:32Z,2022,20,2,46.8351,46.8351,68.33865,-166.69651,1032.7,-2.08,-26.75,yes,yes,yes,300343063380860,SIMB3,UAF,unknown,North
2022-02-15T21:01:52Z,2022,21,1,46.8763,46.8763,68.33869,-166.69645,1033.2,-2.08,-26.25,yes,yes,yes,300343063380860,SIMB3,UAF,unknown,North
2022-02-15T22:00:54Z,2022,22,0,46.9173,46.9173,68.33866,-166.69648,1033.4,-2.1,-25.56,yes,yes,yes,300343063380860,SIMB3,UAF,unknown,North
2022-02-15T23:01:23Z,2022,23,1,46.9593,46.9593,68.33881,-166.69669,1033.4,-2.09,-25.38,yes,yes,yes,300343063380860,SIMB3,UAF,unknown,North
2022-02-16T00:01:00Z,2022,0,1,47.0007,47.0007,68.3387,-166.69648,1033.4,-2.09,-25.25,yes,yes,yes,300343063380860,SIMB3,UAF,unknown,North
2022-02-16T01:01:03Z,2022,1,1,47.0424,47.0424,68.33867,-166.69645,1033.9,-2.08,-25.19,yes,yes,yes,300343063380860,SIMB3,UAF,unknown,North
2022-02-16T02:00:48Z,2022,2,0,47.0839,47.0839,68.33863,-166.69637,1034.6,-2.08,-25.31,yes,yes,yes,300343063380860,SIMB3,UAF,unknown,North
2022-02-16T03:01:00Z,2022,3,0,47.1257,47.1257,68.33867,-166.69645,1034.6,-2.08,-25.69,yes,yes,yes,300343063380860,SIMB3,UAF,unknown,North
2022-02-16T04:00:54Z,2022,4,0,47.1673,47.1673,68.33867,-166.69642,1034.9,-2.08,-25.88,yes,yes,yes,300343063380860,SIMB3,UAF,unknown,North
2022-02-16T05:00:57Z,2022,5,0,47.209,47.209,68.33863,-166.69642,1035.2,-2.09,-26.06,yes,yes,yes,300343063380860,SIMB3,UAF,unknown,North
2022-02-16T06:03:10Z,2022,6,3,47.2522,47.2522,68.33869,-166.69642,1035.6,-2.1,-26.12,yes,yes,yes,300343063380860,SIMB3,UAF,unknown,North
2022-02-16T07:01:03Z,2022,7,1,47.2924,47.2924,68.33867,-166.69646,1035.5,-2.08,-26.0,yes,yes,yes,300343063380860,SIMB3,UAF,unknown,North
2022-02-16T08:00:57Z,2022,8,0,47.334,47.334,68.33869,-166.69638,1035.8,-2.08,-26.12,yes,yes,yes,300343063380860,SIMB3,UAF,unknown,North
2022-02-16T09:01:00Z,2022,9,1,47.3757,47.3757,68.33869,-166.69642,1035.6,-2.08,-26.06,yes,yes,yes,300343063380860,SIMB3,UAF,unknown,North
2022-02-16T10:01:03Z,2022,10,0,47.4174,47.4174,68.33887,-166.69581,1035.8,-2.08,-26.12,yes,yes,yes,300343063380860,SIMB3,UAF,unknown,North
2022-02-16T11:01:06Z,2022,11,1,47.4591,47.4591,68.33866,-166.69645,1035.6,-2.08,-25.88,yes,yes,yes,300343063380860,SIMB3,UAF,unknown,North
2022-02-16T12:01:43Z,2022,12,1,47.5012,47.5012,68.33866,-166.69648,1035.0,-2.11,-25.81,yes,yes,yes,300343063380860,SIMB3,UAF,unknown,North
2022-02-16T13:00:54Z,2022,13,0,47.5423,47.5423,68.33869,-166.69646,1034.8,-2.08,-25.94,yes,yes,yes,300343063380860,SIMB3,UAF,unknown,North
2022-02-16T14:00:57Z,2022,14,0,47.584,47.584,68.33867,-166.69645,1034.4,-2.08,-25.5,yes,yes,yes,300343063380860,SIMB3,UAF,unknown,North
2022-02-16T15:00:51Z,2022,15,0,47.6256,47.6256,68.33903,-166.69598,1033.8,-2.08,-25.38,yes,yes,yes,300343063380860,SIMB3,UAF,unknown,North
2022-02-16T16:01:03Z,2022,16,1,47.6674,47.6674,68.33867,-166.69653,1033.5,-2.08,-25.5,yes,yes,yes,300343063380860,SIMB3,UAF,unknown,North
2022-02-16T17:00:57Z,2022,17,0,47.709,47.709,68.33865,-166.69651,1032.9,-2.08,-25.56,yes,yes,yes,300343063380860,SIMB3,UAF,unknown,North
2022-02-16T18:01:00Z,2022,18,0,47.7507,47.7507,68.33869,-166.69646,1032.5,-2.08,-25.0,yes,yes,yes,300343063380860,SIMB3,UAF,unknown,North
2022-02-16T19:01:03Z,2022,19,1,47.7924,47.7924,68.33869,-166.69653,1031.9,-2.08,-24.69,yes,yes,yes,300343063380860,SIMB3,UAF,unknown,North
2022-02-16T20:00:57Z,2022,20,1,47.834,47.834,68.33866,-166.69646,1031.5,-2.08,-23.88,yes,yes,yes,300343063380860,SIMB3,UAF,unknown,North
2022-02-16T21:00:51Z,2022,21,0,47.8756,47.8756,68.33869,-166.69642,1030.4,-2.08,-23.5,yes,yes,yes,300343063380860,SIMB3,UAF,unknown,North
2022-02-16T22:02:03Z,2022,22,2,47.9181,47.9181,68.33867,-166.69638,1029.4,-2.08,-22.88,yes,yes,yes,300343063380860,SIMB3,UAF,unknown,North
2022-02-16T23:00:48Z,2022,23,0,47.9589,47.9589,68.33866,-166.69638,1028.8,-2.1,-22.75,yes,yes,yes,300343063380860,SIMB3,UAF,unknown,North
2022-02-17T00:01:00Z,2022,0,1,48.0007,48.0007,68.33874,-166.69648,1027.8,-2.1,-22.62,yes,yes,yes,300343063380860,SIMB3,UAF,unknown,North
2022-02-17T01:00:54Z,2022,1,0,48.0423,48.0423,68.3387,-166.69645,1026.6,-2.08,-22.56,yes,yes,yes,300343063380860,SIMB3,UAF,unknown,North
2022-02-17T02:00:57Z,2022,2,0,48.084,48.084,68.33865,-166.69634,1026.1,-2.08,-22.69,yes,yes,yes,300343063380860,SIMB3,UAF,unknown,North
2022-02-17T03:01:00Z,2022,3,0,48.1257,48.1257,68.33865,-166.69642,1025.3,-2.08,-23.31,yes,yes,yes,300343063380860,SIMB3,UAF,unknown,North
2022-02-17T04:01:55Z,2022,4,1,48.168,48.168,68.33869,-166.69648,1024.5,-2.08,-23.62,yes,yes,yes,300343063380860,SIMB3,UAF,unknown,North
2022-02-17T05:00:57Z,2022,5,0,48.209,48.209,68.33863,-166.69637,1024.1,-2.11,-24.0,yes,yes,yes,300343063380860,SIMB3,UAF,unknown,North
2022-02-17T06:00:51Z,2022,6,0,48.2506,48.2506,68.33872,-166.69651,1023.4,-2.1,-23.94,yes,yes,yes,300343063380860,SIMB3,UAF,unknown,North
2022-02-17T07:04:13Z,2022,7,4,48.2946,48.2946,68.33867,-166.69638,1022.9,-2.09,-24.12,yes,yes,yes,300343063380860,SIMB3,UAF,unknown,North
2022-02-17T08:00:48Z,2022,8,0,48.3339,48.3339,68.33867,-166.69645,1022.3,-2.1,-24.62,yes,yes,yes,300343063380860,SIMB3,UAF,unknown,North
2022-02-17T09:01:26Z,2022,9,1,48.376,48.376,68.33866,-166.69645,1021.8,-2.1,-24.56,yes,yes,yes,300343063380860,SIMB3,UAF,unknown,North
2022-02-17T10:00:54Z,2022,10,0,48.4173,48.4173,68.33869,-166.69656,1021.2,-2.11,-24.25,yes,yes,yes,300343063380860,SIMB3,UAF,unknown,North
2022-02-17T11:02:15Z,2022,11,2,48.4599,48.4599,68.33866,-166.69646,1020.7,-2.12,-24.19,yes,yes,yes,300343063380860,SIMB3,UAF,unknown,North
2022-02-17T12:00:51Z,2022,12,0,48.5006,48.5006,68.33863,-166.69651,1020.1,-2.08,-24.38,yes,yes,yes,300343063380860,SIMB3,UAF,unknown,North
2022-02-17T13:01:03Z,2022,13,1,48.5424,48.5424,68.33869,-166.69648,1019.7,-2.08,-25.0,yes,yes,yes,300343063380860,SIMB3,UAF,unknown,North
2022-02-17T14:00:57Z,2022,14,0,48.584,48.584,68.33866,-166.69642,1018.8,-2.13,-24.69,yes,yes,yes,300343063380860,SIMB3,UAF,unknown,North
2022-02-17T15:01:52Z,2022,15,1,48.6263,48.6263,68.33873,-166.69645,1018.1,-2.08,-24.69,yes,yes,yes,300343063380860,SIMB3,UAF,unknown,North
2022-02-17T16:01:03Z,2022,16,1,48.6674,48.6674,68.33867,-166.69648,1017.7,-2.08,-25.0,yes,yes,yes,300343063380860,SIMB3,UAF,unknown,North
2022-02-17T17:00:48Z,2022,17,0,48.7089,48.7089,68.33869,-166.69645,1017.5,-2.09,-25.38,yes,yes,yes,300343063380860,SIMB3,UAF,unknown,North
2022-02-17T18:01:00Z,2022,18,1,48.7507,48.7507,68.3387,-166.69642,1017.3,-2.09,-25.31,yes,yes,yes,300343063380860,SIMB3,UAF,unknown,North
2022-02-17T19:01:03Z,2022,19,1,48.7924,48.7924,68.33867,-166.69651,1017.7,-2.1,-23.88,yes,yes,yes,300343063380860,SIMB3,UAF,unknown,North
2022-02-17T20:00:48Z,2022,20,0,48.8339,48.8339,68.33867,-166.69653,1017.7,-2.08,-21.38,yes,yes,yes,300343063380860,SIMB3,UAF,unknown,North
2022-02-17T21:01:09Z,2022,21,1,48.8758,48.8758,68.33903,-166.69659,1017.7,-2.09,-19.25,yes,yes,yes,300343063380860,SIMB3,UAF,unknown,North
2022-02-17T22:01:03Z,2022,22,1,48.9174,48.9174,68.33866,-166.69648,1017.6,-2.1,-16.62,yes,yes,yes,300343063380860,SIMB3,UAF,unknown,North
2022-02-17T23:00:57Z,2022,23,0,48.959,48.959,68.33863,-166.69638,1018.5,-2.08,-16.81,yes,yes,yes,300343063380860,SIMB3,UAF,unknown,North
2022-02-18T00:00:51Z,2022,0,0,49.0006,49.0006,68.33869,-166.69646,1018.7,-2.1,-17.12,yes,yes,yes,300343063380860,SIMB3,UAF,unknown,North
2022-02-18T01:01:03Z,2022,1,1,49.0424,49.0424,68.33869,-166.69638,1019.3,-2.08,-17.12,yes,yes,yes,300343063380860,SIMB3,UAF,unknown,North